CT2HRB-13 Weather Reports


Display with metric or nautical units.
time (UTC)temp
F
wind
direction
speed
MPH
gust
MPH
rain 1hr
in
rain 24hr
in
rain mn
in
humidity
%
barometer
mb
20260508132502 69 0.0 0.0 0.00 0.00 0.00 53 1007.9
20260508132001 69 0.0 0.0 0.00 0.00 0.00 49 1008.1
20260508131502 69 0.0 0.0 0.00 0.00 0.00 51 1007.9
20260508131002 69 0.0 0.0 0.00 0.00 0.00 50 1008.2
20260508130501 68 0.0 0.0 0.00 0.00 0.00 52 1007.9
20260508130001 68 0.0 0.0 0.00 0.00 0.00 50 1007.9
20260508125501 68 0.0 0.0 0.00 0.00 0.00 52 1007.9
20260508125002 67 0.0 0.0 0.00 0.00 0.00 53 1008.1
20260508124501 67 0.0 0.0 0.00 0.00 0.00 54 1008.3
20260508124001 67 0.0 0.0 0.00 0.00 0.00 55 1008.5
20260508123502 67 0.0 0.0 0.00 0.00 0.00 54 1008.3
20260508123002 67 0.0 0.0 0.00 0.00 0.00 54 1008.6
20260508122502 67 0.0 0.0 0.00 0.00 0.00 54 1008.5
20260508122002 67 0.0 0.0 0.00 0.00 0.00 53 1008.5
20260508121502 67 0.0 0.0 0.00 0.00 0.00 51 1008.6
20260508121001 67 0.0 0.0 0.00 0.00 0.00 51 1008.8
20260508120501 67 0.0 0.0 0.00 0.00 0.00 54 1008.9
20260508120001 67 0.0 0.0 0.00 0.00 0.00 55 1008.9
20260508115502 68 0.0 0.0 0.00 0.00 0.00 52 1008.7
20260508115001 67 0.0 0.0 0.00 0.00 0.00 53 1008.9
20260508114501 68 0.0 0.0 0.00 0.00 0.00 53 1009.0
20260508114001 67 0.0 0.0 0.00 0.00 0.00 55 1009.0
20260508113502 67 0.0 0.0 0.00 0.00 0.00 57 1009.1
20260508113001 66 0.0 0.0 0.00 0.00 0.00 60 1008.9
20260508112501 65 0.0 0.0 0.00 0.00 0.00 60 1009.0
20260508112001 65 0.0 0.0 0.00 0.00 0.00 60 1009.0
20260508111501 65 0.0 0.0 0.00 0.00 0.00 60 1009.1
20260508111002 64 0.0 0.0 0.00 0.00 0.00 63 1009.1
20260508110501 63 0.0 0.0 0.00 0.00 0.00 65 1009.1
20260508110001 63 0.0 0.0 0.00 0.00 0.00 64 1009.1
20260508105502 64 0.0 0.0 0.00 0.00 0.00 61 1009.2
20260508105001 64 0.0 0.0 0.00 0.00 0.00 63 1009.3
20260508104501 63 0.0 0.0 0.00 0.00 0.00 67 1009.4
20260508104001 62 0.0 0.0 0.00 0.00 0.00 67 1009.4
20260508103501 63 0.0 0.0 0.00 0.00 0.00 66 1009.4
20260508103002 64 0.0 0.0 0.00 0.00 0.00 63 1009.5
20260508102502 64 0.0 0.0 0.00 0.00 0.00 63 1009.5
20260508102002 64 0.0 0.0 0.00 0.00 0.00 61 1009.3
20260508101502 65 0.0 0.0 0.00 0.00 0.00 59 1009.3
20260508101002 65 0.0 0.0 0.00 0.00 0.00 60 1009.3
20260508100501 64 0.0 0.0 0.00 0.00 0.00 61 1009.5
20260508100002 64 0.0 0.0 0.00 0.00 0.00 59 1009.3
20260508095501 64 0.0 0.0 0.00 0.00 0.00 58 1009.4
20260508095001 64 0.0 0.0 0.00 0.00 0.00 59 1009.4
20260508094501 64 0.0 0.0 0.00 0.00 0.00 59 1009.3
20260508094002 63 0.0 0.0 0.00 0.00 0.00 60 1009.3
20260508093501 63 0.0 0.0 0.00 0.00 0.00 62 1009.2
20260508093001 63 0.0 0.0 0.00 0.00 0.00 62 1009.4
20260508092501 63 0.0 0.0 0.00 0.00 0.00 63 1009.4
20260508092002 63 0.0 0.0 0.00 0.00 0.00 63 1009.5
20260508091502 62 0.0 0.0 0.00 0.00 0.00 62 1009.3
20260508091002 62 0.0 0.0 0.00 0.00 0.00 60 1009.5
20260508090501 62 0.0 0.0 0.00 0.00 0.00 61 1009.4
20260508090002 62 0.0 0.0 0.00 0.00 0.00 63 1009.3
20260508085502 61 0.0 0.0 0.00 0.00 0.00 62 1009.4
20260508085001 61 0.0 0.0 0.00 0.00 0.00 63 1009.5
20260508084501 61 0.0 0.0 0.00 0.00 0.00 64 1009.4
20260508084001 61 0.0 0.0 0.00 0.00 0.00 65 1009.6
20260508083501 61 0.0 0.0 0.00 0.00 0.00 64 1009.5
20260508083002 62 0.0 0.0 0.00 0.00 0.00 65 1009.5
20260508082502 61 0.0 0.0 0.00 0.00 0.00 66 1009.5
20260508082001 61 0.0 0.0 0.00 0.00 0.00 67 1009.6
20260508081501 60 0.0 0.0 0.00 0.00 0.00 67 1009.4
20260508081001 60 0.0 0.0 0.00 0.00 0.00 67 1009.4
20260508080501 60 0.0 0.0 0.00 0.00 0.00 68 1009.3
20260508080001 60 0.0 0.0 0.00 0.00 0.00 68 1009.5
20260508075501 60 0.0 0.0 0.00 0.00 0.00 69 1009.4
20260508075001 60 0.0 0.0 0.00 0.00 0.00 70 1009.6
20260508074501 59 0.0 0.0 0.00 0.00 0.00 70 1009.3
20260508074002 59 0.0 0.0 0.00 0.00 0.00 70 1009.4
20260508073501 60 0.0 0.0 0.00 0.00 0.00 69 1009.4
20260508073001 60 0.0 0.0 0.00 0.00 0.00 68 1009.4
20260508072502 60 0.0 0.0 0.00 0.00 0.00 69 1009.4
20260508072001 60 0.0 0.0 0.00 0.00 0.00 71 1009.5
20260508071502 58 0.0 0.0 0.00 0.00 0.00 72 1009.4
20260508071001 58 0.0 0.0 0.00 0.00 0.00 72 1009.3
20260508070501 58 0.0 0.0 0.00 0.00 0.00 72 1009.3
20260508070002 58 0.0 0.0 0.00 0.00 0.00 75 1009.2
20260508065502 57 0.0 0.0 0.00 0.00 0.00 75 1009.1
20260508065002 57 0.0 0.0 0.00 0.00 0.00 77 1009.2
20260508064501 57 0.0 0.0 0.00 0.00 0.00 77 1009.3
20260508064001 57 0.0 0.0 0.00 0.00 0.00 77 1009.3
20260508063502 56 0.0 0.0 0.00 0.00 0.00 78 1009.1
20260508063002 56 0.0 0.0 0.00 0.00 0.00 78 1009.1
20260508062502 56 0.0 0.0 0.00 0.00 0.00 79 1009.1
20260508062001 56 0.0 0.0 0.00 0.00 0.00 79 1009.0
20260508061501 56 0.0 0.0 0.00 0.00 0.00 79 1008.9
20260508061001 55 0.0 0.0 0.00 0.00 0.00 79 1009.1
20260508060501 55 0.0 0.0 0.00 0.00 0.00 79 1009.1
20260508060002 55 0.0 0.0 0.00 0.00 0.00 79 1009.0
20260508055502 55 0.0 0.0 0.00 0.00 0.00 79 1008.9
20260508055001 55 0.0 0.0 0.00 0.00 0.00 79 1009.0
20260508054501 55 0.0 0.0 0.00 0.00 0.00 79 1009.0
20260508054002 55 0.0 0.0 0.00 0.00 0.00 79 1008.9
20260508053501 55 0.0 0.0 0.00 0.00 0.00 79 1008.9
20260508053001 55 0.0 0.0 0.00 0.00 0.00 79 1008.9
20260508052502 55 0.0 0.0 0.00 0.00 0.00 79 1008.8
20260508052001 55 0.0 0.0 0.00 0.00 0.00 79 1008.7
20260508051501 55 0.0 0.0 0.00 0.00 0.00 78 1008.7
20260508051001 55 0.0 0.0 0.00 0.00 0.00 77 1008.6
20260508050501 55 0.0 0.0 0.00 0.00 0.00 76 1008.8
20260508050001 55 0.0 0.0 0.00 0.00 0.00 76 1008.4
20260508045501 55 0.0 0.0 0.00 0.00 0.00 76 1008.4
20260508045001 55 0.0 0.0 0.00 0.00 0.00 76 1008.4
20260508044501 55 0.0 0.0 0.00 0.00 0.00 76 1008.3
20260508044002 55 0.0 0.0 0.00 0.00 0.00 76 1008.3
20260508043502 55 0.0 0.0 0.00 0.00 0.00 76 1008.3
20260508043002 56 0.0 0.0 0.00 0.00 0.00 75 1008.3
20260508042502 56 0.0 0.0 0.00 0.00 0.00 75 1008.3
20260508042001 57 0.0 0.0 0.00 0.00 0.00 75 1008.5
20260508041501 57 0.0 0.0 0.00 0.00 0.00 75 1008.7
20260508041002 57 0.0 0.0 0.00 0.00 0.00 75 1008.5
20260508040502 57 0.0 0.0 0.00 0.00 0.00 75 1008.5
20260508040001 57 0.0 0.0 0.00 0.00 0.00 74 1008.6
20260508035501 57 0.0 0.0 0.00 0.00 0.00 74 1008.6
20260508035001 57 0.0 0.0 0.00 0.00 0.00 73 1008.7
20260508034501 57 0.0 0.0 0.00 0.00 0.00 72 1008.8
20260508034001 57 0.0 0.0 0.00 0.00 0.00 72 1008.8
20260508033502 57 0.0 0.0 0.00 0.00 0.00 72 1008.8
20260508033002 57 0.0 0.0 0.00 0.00 0.00 72 1008.7
20260508032501 57 0.0 0.0 0.00 0.00 0.00 71 1008.8
20260508032002 57 0.0 0.0 0.00 0.00 0.00 71 1008.7
20260508031501 57 0.0 0.0 0.00 0.00 0.00 71 1008.8
20260508031001 57 0.0 0.0 0.00 0.00 0.00 71 1008.7
20260508030502 57 0.0 0.0 0.00 0.00 0.00 71 1008.7
20260508030002 57 0.0 0.0 0.00 0.00 0.00 72 1008.7
20260508025501 57 0.0 0.0 0.00 0.00 0.00 72 1008.7
20260508025001 57 0.0 0.0 0.00 0.00 0.00 72 1008.7
20260508024501 56 0.0 0.0 0.00 0.00 0.00 72 1008.7
20260508024002 56 0.0 0.0 0.00 0.00 0.00 71 1008.8
20260508023502 56 0.0 0.0 0.00 0.00 0.00 71 1008.8
20260508023002 56 0.0 0.0 0.00 0.00 0.00 71 1008.6
20260508022502 56 0.0 0.0 0.00 0.00 0.00 71 1008.8
20260508022002 56 0.0 0.0 0.00 0.00 0.00 71 1008.8
20260508021501 56 0.0 0.0 0.00 0.00 0.00 71 1009.0
20260508021001 56 0.0 0.0 0.00 0.00 0.00 71 1009.0
20260508020501 56 0.0 0.0 0.00 0.00 0.00 72 1009.2
20260508020002 56 0.0 0.0 0.00 0.00 0.00 72 1009.2
20260508015501 56 0.0 0.0 0.00 0.00 0.00 71 1009.3
20260508015001 56 0.0 0.0 0.00 0.00 0.00 71 1009.4
20260508014501 56 0.0 0.0 0.00 0.00 0.00 71 1009.2
20260508014002 56 0.0 0.0 0.00 0.00 0.00 71 1009.6
20260508013501 56 0.0 0.0 0.00 0.00 0.00 71 1009.5
20260508013001 56 0.0 0.0 0.00 0.00 0.00 71 1009.6
20260508012501 56 0.0 0.0 0.00 0.00 0.00 70 1009.5
20260508012002 56 0.0 0.0 0.00 0.00 0.00 70 1009.5
20260508011502 56 0.0 0.0 0.00 0.00 0.00 70 1009.5
20260508011001 56 0.0 0.0 0.00 0.00 0.00 70 1009.7
20260508010501 56 0.0 0.0 0.00 0.00 0.00 70 1009.7
20260508010001 56 0.0 0.0 0.00 0.00 0.00 70 1009.8
20260508005501 56 0.0 0.0 0.00 0.00 0.00 71 1009.7
20260508005001 56 0.0 0.0 0.00 0.00 0.00 70 1010.0
20260508004501 56 0.0 0.0 0.00 0.00 0.00 70 1009.8
20260508004002 56 0.0 0.0 0.00 0.00 0.00 70 1009.8
20260508003501 56 0.0 0.0 0.00 0.00 0.00 70 1010.0
20260508003002 57 0.0 0.0 0.00 0.00 0.00 69 1010.0
20260508002502 57 0.0 0.0 0.00 0.00 0.00 69 1009.8
20260508002002 57 0.0 0.0 0.00 0.00 0.00 69 1009.9
20260508001502 57 0.0 0.0 0.00 0.00 0.00 69 1009.8
20260508001002 57 0.0 0.0 0.00 0.00 0.00 70 1010.1
20260508000502 57 0.0 0.0 0.00 0.00 0.00 70 1010.1
20260508000001 56 0.0 0.0 0.00 0.00 0.00 69 1010.1
20260507235501 56 0.0 0.0 0.00 0.00 0.00 69 1009.9
20260507235001 56 0.0 0.0 0.00 0.00 0.00 69 1009.9
20260507234502 56 0.0 0.0 0.00 0.00 0.00 69 1010.0
20260507234001 57 0.0 0.0 0.00 0.00 0.00 69 1009.7
20260507233501 56 0.0 0.0 0.00 0.00 0.00 69 1010.0
20260507233001 57 0.0 0.0 0.00 0.00 0.00 69 1009.8
20260507232501 57 0.0 0.0 0.00 0.00 0.00 69 1009.9
20260507232001 57 0.0 0.0 0.00 0.00 0.00 69 1009.9
20260507231502 57 0.0 0.0 0.00 0.00 0.00 69 1010.0
20260507231001 57 0.0 0.0 0.00 0.00 0.00 69 1010.1
20260507230502 57 0.0 0.0 0.00 0.00 0.00 69 1010.2
20260507230002 57 0.0 0.0 0.00 0.00 0.00 69 1010.3
20260507225501 57 0.0 0.0 0.00 0.00 0.00 70 1010.3
20260507225002 57 0.0 0.0 0.00 0.00 0.00 70 1010.2
20260507224501 57 0.0 0.0 0.00 0.00 0.00 69 1010.3
20260507224002 57 0.0 0.0 0.00 0.00 0.00 69 1010.5
20260507223502 57 0.0 0.0 0.00 0.00 0.00 69 1010.5
20260507223001 57 0.0 0.0 0.00 0.00 0.00 70 1010.2
20260507222502 57 0.0 0.0 0.00 0.00 0.00 70 1010.4
20260507222002 56 0.0 0.0 0.00 0.00 0.00 70 1010.3
20260507221501 56 0.0 0.0 0.00 0.00 0.00 70 1010.3
20260507221002 56 0.0 0.0 0.00 0.00 0.00 70 1010.2
20260507220501 56 0.0 0.0 0.00 0.00 0.00 70 1010.4
20260507220002 56 0.0 0.0 0.00 0.00 0.00 70 1010.4
20260507215502 57 0.0 0.0 0.00 0.00 0.00 69 1010.6
20260507215002 57 0.0 0.0 0.00 0.00 0.00 69 1010.4
20260507214501 56 0.0 0.0 0.00 0.00 0.00 70 1010.4
20260507214001 56 0.0 0.0 0.00 0.00 0.00 70 1010.4
20260507213502 56 0.0 0.0 0.00 0.00 0.00 70 1010.6
20260507213002 56 0.0 0.0 0.00 0.00 0.00 69 1010.7
20260507212502 56 0.0 0.0 0.00 0.00 0.00 69 1010.8
20260507212001 56 0.0 0.0 0.00 0.00 0.00 69 1010.5
20260507211502 56 0.0 0.0 0.00 0.00 0.00 69 1010.6
20260507211001 56 0.0 0.0 0.00 0.00 0.00 69 1010.8
20260507210501 56 0.0 0.0 0.00 0.00 0.00 69 1010.6
20260507210001 56 0.0 0.0 0.00 0.00 0.00 69 1010.7
20260507205502 57 0.0 0.0 0.00 0.00 0.00 69 1010.6
20260507205001 57 0.0 0.0 0.00 0.00 0.00 68 1010.7
20260507204501 57 0.0 0.0 0.00 0.00 0.00 68 1010.7
20260507204002 57 0.0 0.0 0.00 0.00 0.00 68 1010.9
20260507203502 57 0.0 0.0 0.00 0.00 0.00 68 1010.5
20260507203002 57 0.0 0.0 0.00 0.00 0.00 68 1010.7
20260507202501 57 0.0 0.0 0.00 0.00 0.00 67 1010.5
20260507202001 57 0.0 0.0 0.00 0.00 0.00 67 1010.7
20260507201502 57 0.0 0.0 0.00 0.00 0.00 67 1010.5
20260507201002 57 0.0 0.0 0.00 0.00 0.00 67 1010.5
20260507200501 58 0.0 0.0 0.00 0.00 0.00 67 1010.2
20260507200001 58 0.0 0.0 0.00 0.00 0.00 67 1010.4
20260507195502 58 0.0 0.0 0.00 0.00 0.00 66 1010.3
20260507195001 58 0.0 0.0 0.00 0.00 0.00 66 1010.4
20260507194501 58 0.0 0.0 0.00 0.00 0.00 66 1010.2
20260507194001 58 0.0 0.0 0.00 0.00 0.00 65 1010.1
20260507193502 58 0.0 0.0 0.00 0.00 0.00 65 1010.3
20260507193001 58 0.0 0.0 0.00 0.00 0.00 64 1010.3
20260507192502 58 0.0 0.0 0.00 0.00 0.00 64 1010.3
20260507192001 58 0.0 0.0 0.00 0.00 0.00 62 1010.4
20260507191502 59 0.0 0.0 0.00 0.00 0.00 62 1010.2
20260507191001 59 0.0 0.0 0.00 0.00 0.00 62 1010.1
20260507190502 59 0.0 0.0 0.00 0.00 0.00 62 1010.1
20260507190002 59 0.0 0.0 0.00 0.00 0.00 61 1010.0
20260507185501 60 0.0 0.0 0.00 0.00 0.00 60 1009.9
20260507185002 60 0.0 0.0 0.00 0.00 0.00 60 1010.0
20260507184502 60 0.0 0.0 0.00 0.00 0.00 60 1010.0
20260507184002 60 0.0 0.0 0.00 0.00 0.00 61 1010.1
20260507183501 60 0.0 0.0 0.00 0.00 0.00 61 1010.0
20260507183002 60 0.0 0.0 0.00 0.00 0.00 60 1010.0
20260507182501 60 0.0 0.0 0.00 0.00 0.00 60 1010.0
20260507182001 61 0.0 0.0 0.00 0.00 0.00 59 1009.8
20260507181501 61 0.0 0.0 0.00 0.00 0.00 60 1009.9
20260507181001 61 0.0 0.0 0.00 0.00 0.00 61 1010.0
20260507180502 61 0.0 0.0 0.00 0.00 0.00 60 1010.0
20260507180001 61 0.0 0.0 0.00 0.00 0.00 62 1009.9
20260507175501 61 0.0 0.0 0.00 0.00 0.00 61 1010.0
20260507175002 61 0.0 0.0 0.00 0.00 0.00 60 1010.0
20260507174501 61 0.0 0.0 0.00 0.00 0.00 60 1009.8
20260507174002 61 0.0 0.0 0.00 0.00 0.00 59 1009.7
20260507173501 61 0.0 0.0 0.00 0.00 0.00 59 1009.6
20260507173002 62 0.0 0.0 0.00 0.00 0.00 58 1009.7
20260507172501 62 0.0 0.0 0.00 0.00 0.00 58 1009.8
20260507172001 63 0.0 0.0 0.00 0.00 0.00 57 1009.9
20260507171501 63 0.0 0.0 0.00 0.00 0.00 57 1009.8
20260507171001 62 0.0 0.0 0.00 0.00 0.00 56 1009.7
20260507170501 62 0.0 0.0 0.00 0.00 0.00 55 1009.7
20260507170001 63 0.0 0.0 0.00 0.00 0.00 55 1009.6
20260507165501 63 0.0 0.0 0.00 0.00 0.00 54 1009.7
20260507165002 63 0.0 0.0 0.00 0.00 0.00 52 1009.7
20260507164501 64 0.0 0.0 0.00 0.00 0.00 51 1009.6
20260507164002 64 0.0 0.0 0.00 0.00 0.00 48 1009.7
20260507163502 65 0.0 0.0 0.00 0.00 0.00 48 1009.7
20260507163001 65 0.0 0.0 0.00 0.00 0.00 49 1009.7
20260507162502 65 0.0 0.0 0.00 0.00 0.00 47 1009.7
20260507162002 65 0.0 0.0 0.00 0.00 0.00 46 1009.8
20260507161501 65 0.0 0.0 0.00 0.00 0.00 46 1009.8
20260507161001 65 0.0 0.0 0.00 0.00 0.00 47 1009.8
20260507160501 65 0.0 0.0 0.00 0.00 0.00 45 1009.6
20260507160001 65 0.0 0.0 0.00 0.00 0.00 48 1009.8
20260507155501 65 0.0 0.0 0.00 0.00 0.00 47 1009.6
20260507155002 65 0.0 0.0 0.00 0.00 0.00 45 1009.7
20260507154502 66 0.0 0.0 0.00 0.00 0.00 47 1009.7
20260507154002 66 0.0 0.0 0.00 0.00 0.00 46 1009.6
20260507153502 66 0.0 0.0 0.00 0.00 0.00 47 1009.9
20260507153001 66 0.0 0.0 0.00 0.00 0.00 46 1009.9
20260507152501 67 0.0 0.0 0.00 0.00 0.00 42 1009.7
20260507152001 67 0.0 0.0 0.00 0.00 0.00 45 1009.8
20260507151501 67 0.0 0.0 0.00 0.00 0.00 45 1009.8
20260507151002 67 0.0 0.0 0.00 0.00 0.00 47 1009.8
20260507150502 67 0.0 0.0 0.00 0.00 0.00 46 1009.8
20260507150002 67 0.0 0.0 0.00 0.00 0.00 46 1009.8
20260507145501 67 0.0 0.0 0.00 0.00 0.00 47 1009.9
20260507145001 67 0.0 0.0 0.00 0.00 0.00 47 1010.0
20260507144502 67 0.0 0.0 0.00 0.00 0.00 47 1010.0
20260507144001 67 0.0 0.0 0.00 0.00 0.00 46 1010.1
20260507143501 67 0.0 0.0 0.00 0.00 0.00 46 1010.0
20260507143002 67 0.0 0.0 0.00 0.00 0.00 45 1010.1
20260507142501 67 0.0 0.0 0.00 0.00 0.00 44 1010.1
20260507142001 68 0.0 0.0 0.00 0.00 0.00 44 1010.2
20260507141502 69 0.0 0.0 0.00 0.00 0.00 44 1010.2
20260507141002 69 0.0 0.0 0.00 0.00 0.00 44 1010.2
20260507140501 69 0.0 0.0 0.00 0.00 0.00 45 1010.1
20260507140002 69 0.0 0.0 0.00 0.00 0.00 45 1010.2
20260507135502 68 0.0 0.0 0.00 0.00 0.00 47 1010.4
20260507135001 68 0.0 0.0 0.00 0.00 0.00 46 1010.2
20260507134501 69 0.0 0.0 0.00 0.00 0.00 46 1010.4
20260507134001 70 0.0 0.0 0.00 0.00 0.00 45 1010.3
20260507133501 69 0.0 0.0 0.00 0.00 0.00 46 1010.4
20260507133001 69 0.0 0.0 0.00 0.00 0.00 44 1010.6